,,Stat6,,Stat2,,Stat8,,Stat9,,Stat10,,Wind1,,Wind1,
time,status,PA1M_AVG,status,PR1M_SUM,status,RH1M_AVG,status,SR1M_AVG,status,TA1M_AVG,status,W1dAve1m,status,W1sAve1m,
2008-04-07, 00:00:01,VALID,918.227,VALID,0,VALID,100,VALID,-0.0679233,VALID,21.3171,VALID,47,VALID,0,
2008-04-07, 00:01:01,VALID,918.216,VALID,0,VALID,100,VALID,-0.101885,VALID,21.3041,VALID,47,VALID,0,
2008-04-07, 00:02:01,VALID,918.201,VALID,0,VALID,100,VALID,-0.0849042,VALID,21.3274,VALID,47,VALID,0,
2008-04-07, 00:03:01,VALID,918.188,VALID,0,VALID,100,VALID,-0.101885,VALID,21.2719,VALID,47,VALID,0,
2008-04-07, 00:04:01,VALID,918.179,VALID,0,VALID,100,VALID,-0.101885,VALID,21.2267,VALID,47,VALID,0,
2008-04-07, 00:05:01,VALID,918.166,VALID,0,VALID,100,VALID,0,VALID,21.2349,VALID,47,VALID,0,
2008-04-07, 00:06:01,VALID,918.166,VALID,0,VALID,100,VALID,0,VALID,21.2381,VALID,47,VALID,0,
2008-04-07, 00:07:00,VALID,918.179,VALID,0,VALID,100,VALID,0.0169808,VALID,21.2284,VALID,47,VALID,0,
2008-04-07, 00:08:00,VALID,918.182,VALID,0,VALID,100,VALID,0.0339617,VALID,21.2379,VALID,47,VALID,0,
2008-04-07, 00:09:00,VALID,918.19,VALID,0,VALID,100,VALID,0.0339617,VALID,21.2506,VALID,47,VALID,0.155048,
2008-04-07, 00:10:00,VALID,918.188,VALID,0,VALID,100,VALID,0.0509425,VALID,21.2341,VALID,47,VALID,0,
2008-04-07, 00:11:00,VALID,918.183,VALID,0,VALID,100,VALID,0.0509425,VALID,21.2216,VALID,40,VALID,0.179142,
2008-04-07, 00:12:00,VALID,918.175,VALID,0,VALID,100,VALID,0.0509425,VALID,21.2349,VALID,30,VALID,0.531076,
2008-04-07, 00:13:00,VALID,918.185,VALID,0,VALID,100,VALID,0.0679233,VALID,21.2149,VALID,27,VALID,0.688772,
2008-04-07, 00:14:00,VALID,918.183,VALID,0,VALID,100,VALID,0.0169808,VALID,21.2019,VALID,25,VALID,0.339026,
2008-04-07, 00:15:00,VALID,918.174,VALID,0,VALID,100,VALID,0.0339617,VALID,21.2051,VALID,25,VALID,0.27077,
2008-04-07, 00:16:00,VALID,918.168,VALID,0,VALID,100,VALID,0.0339617,VALID,21.2021,VALID,26,VALID,0,
2008-04-07, 00:17:00,VALID,918.152,VALID,0,VALID,100,VALID,0,VALID,21.2021,VALID,26,VALID,0,
2008-04-07, 00:18:00,VALID,918.151,VALID,0,VALID,100,VALID,0.0679233,VALID,21.1962,VALID,26,VALID,0,
2008-04-07, 00:19:00,VALID,918.142,VALID,0,VALID,100,VALID,0,VALID,21.1829,VALID,26,VALID,0,
2008-04-07, 00:20:00,VALID,918.126,VALID,0,VALID,100,VALID,-0.0849042,VALID,21.1973,VALID,26,VALID,0,
2008-04-07, 00:21:00,VALID,918.111,VALID,0,VALID,100,VALID,-0.0849042,VALID,21.1908,VALID,26,VALID,0,
2008-04-07, 00:22:00,VALID,918.083,VALID,0,VALID,100,VALID,-0.0509425,VALID,21.1878,VALID,26,VALID,0,
2008-04-07, 00:23:00,VALID,918.067,VALID,0,VALID,100,VALID,-0.0679233,VALID,21.184,VALID,26,VALID,0,
2008-04-07, 00:24:00,VALID,918.034,VALID,0,VALID,100,VALID,-0.101885,VALID,21.1875,VALID,26,VALID,0,
2008-04-07, 00:25:00,VALID,918.006,VALID,0,VALID,100,VALID,-0.101885,VALID,21.2073,VALID,26,VALID,0,
2008-04-07, 00:26:00,VALID,917.982,VALID,0,VALID,100,VALID,-0.0679233,VALID,21.2103,VALID,26,VALID,0,
2008-04-07, 00:27:00,VALID,917.967,VALID,0,VALID,100,VALID,-0.0849042,VALID,21.2035,VALID,26,VALID,0,
2008-04-07, 00:28:00,VALID,917.942,VALID,0,VALID,100,VALID,-0.0849042,VALID,21.2265,VALID,26,VALID,0,
2008-04-07, 00:29:00,VALID,917.932,VALID,0,VALID,100,VALID,-0.118866,VALID,21.2395,VALID,25,VALID,0.0141369,
2008-04-07, 00:30:00,VALID,917.911,VALID,0,VALID,100,VALID,-0.0679233,VALID,21.2589,VALID,25,VALID,0.247962,
2008-04-07, 00:31:00,VALID,917.898,VALID,0,VALID,100,VALID,-0.0509425,VALID,21.2782,VALID,31,VALID,0.462754,
2008-04-07, 00:32:00,VALID,917.894,VALID,0,VALID,100,VALID,-0.0679233,VALID,21.2944,VALID,34,VALID,0.492374,
2008-04-07, 00:33:00,VALID,917.891,VALID,0,VALID,100,VALID,-0.0849042,VALID,21.2944,VALID,37,VALID,0.0226935,
2008-04-07, 00:34:00,VALID,917.897,VALID,0,VALID,100,VALID,-0.0679233,VALID,21.3141,VALID,37,VALID,0,
2008-04-07, 00:35:00,VALID,917.896,VALID,0,VALID,100,VALID,-0.0849042,VALID,21.2849,VALID,61,VALID,0,
2008-04-07, 00:36:00,VALID,917.877,VALID,0,VALID,100,VALID,-0.0849042,VALID,21.2557,VALID,92,VALID,0.01875,
2008-04-07, 00:37:00,VALID,917.875,VALID,0,VALID,100,VALID,-0.0509425,VALID,21.2292,VALID,92,VALID,0,
2008-04-07, 00:38:00,VALID,917.858,VALID,0,VALID,100,VALID,-0.0679233,VALID,21.2362,VALID,92,VALID,0.000355114,
2008-04-07, 00:39:00,VALID,917.849,VALID,0,VALID,100,VALID,-0.0849042,VALID,21.2424,VALID,74,VALID,0.540483,
2008-04-07, 00:40:00,VALID,917.844,VALID,0,VALID,100,VALID,-0.0679233,VALID,21.236,VALID,53,VALID,0.40843,
2008-04-07, 00:41:00,VALID,917.842,VALID,0,VALID,100,VALID,-0.118866,VALID,21.2568,VALID,43,VALID,0.150436,
2008-04-07, 00:42:00,VALID,917.845,VALID,0,VALID,100,VALID,-0.118866,VALID,21.246,VALID,33,VALID,0.407986,
2008-04-07, 00:43:00,VALID,917.831,VALID,0,VALID,100,VALID,-0.0679233,VALID,21.2654,VALID,27,VALID,0.377663,
2008-04-07, 00:44:00,VALID,917.817,VALID,0,VALID,100,VALID,-0.0849042,VALID,21.2427,VALID,29,VALID,0.455915,
2008-04-07, 00:45:00,VALID,917.789,VALID,0,VALID,100,VALID,-0.101885,VALID,21.22,VALID,26,VALID,0.76582,
2008-04-07, 00:46:00,VALID,917.752,VALID,0,VALID,100,VALID,-0.0849042,VALID,21.2005,VALID,25,VALID,1.07104,
2008-04-07, 00:47:00,VALID,917.708,VALID,0,VALID,100,VALID,-0.0509425,VALID,21.1745,VALID,22,VALID,1.21839,
2008-04-07, 00:48:00,VALID,917.687,VALID,0,VALID,100,VALID,-0.0679233,VALID,21.1486,VALID,16,VALID,1.16146,
2008-04-07, 00:49:00,VALID,917.639,VALID,0,VALID,100,VALID,-0.0849042,VALID,21.1223,VALID,20,VALID,1.03819,
2008-04-07, 00:50:00,VALID,917.619,VALID,0,VALID,100,VALID,0,VALID,21.105,VALID,25,VALID,0.979492,
2008-04-07, 00:51:00,VALID,917.61,VALID,0,VALID,100,VALID,0.0339617,VALID,21.0883,VALID,17,VALID,0.913872,
2008-04-07, 00:52:00,VALID,917.589,VALID,0,VALID,100,VALID,0.0169808,VALID,21.0753,VALID,14,VALID,0.837843,
2008-04-07, 00:53:00,VALID,917.577,VALID,0,VALID,100,VALID,0.0169808,VALID,21.0726,VALID,28,VALID,1.04967,
2008-04-07, 00:54:00,VALID,917.564,VALID,0,VALID,100,VALID,0.0339617,VALID,21.0596,VALID,30,VALID,1.18789,
2008-04-07, 00:55:00,VALID,917.532,VALID,0,VALID,100,VALID,0,VALID,21.0398,VALID,31,VALID,0.868037,
2008-04-07, 00:56:00,VALID,917.508,VALID,0,VALID,100,VALID,0,VALID,21.0499,VALID,7,VALID,0.895833,
2008-04-07, 00:57:00,VALID,917.468,VALID,0,VALID,100,VALID,0,VALID,21.0336,VALID,337,VALID,1.08812,
2008-04-07, 00:58:00,VALID,917.446,VALID,0,VALID,100,VALID,0.0169808,VALID,21.0201,VALID,349,VALID,0.520833,
2008-04-07, 00:59:00,VALID,917.431,VALID,0,VALID,100,VALID,0.0169808,VALID,21.0266,INVALID,360,VALID,0,
2008-04-07, 01:00:00,VALID,917.421,VALID,0,VALID,100,VALID,0.0169808,VALID,21.0101,INVALID,360,VALID,0,
2008-04-07, 01:01:00,VALID,917.405,VALID,0,VALID,100,VALID,0,VALID,21.0269,VALID,360,VALID,0,
2008-04-07, 01:02:00,VALID,917.392,VALID,0,VALID,100,VALID,0.0169808,VALID,21.0526,VALID,22,VALID,0.960193,
2008-04-07, 01:03:00,VALID,917.357,VALID,0,VALID,100,VALID,0.0169808,VALID,21.0718,VALID,33,VALID,0.542882,
2008-04-07, 01:04:00,VALID,917.353,VALID,0,VALID,100,VALID,0.0339617,VALID,21.0626,VALID,27,VALID,0,
2008-04-07, 01:05:00,VALID,917.352,VALID,0,VALID,100,VALID,0.0169808,VALID,21.072,VALID,32,VALID,0.0228795,
2008-04-07, 01:06:00,VALID,917.362,VALID,0,VALID,100,VALID,0,VALID,21.0791,VALID,25,VALID,0.635476,
2008-04-07, 01:07:00,VALID,917.373,VALID,0,VALID,100,VALID,0.0169808,VALID,21.0688,VALID,23,VALID,0,
2008-04-07, 01:08:00,VALID,917.387,VALID,0,VALID,100,VALID,0,VALID,21.0626,VALID,23,VALID,0,
2008-04-07, 01:09:00,VALID,917.39,VALID,0,VALID,100,VALID,0.0169808,VALID,21.0661,VALID,23,VALID,0.077097,
2008-04-07, 01:10:00,VALID,917.409,VALID,0,VALID,100,VALID,0.0339617,VALID,21.0528,VALID,23,VALID,0.0949929,
2008-04-07, 01:11:00,VALID,917.406,VALID,0,VALID,100,VALID,0,VALID,21.0853,VALID,5,VALID,0,
2008-04-07, 01:12:00,VALID,917.383,VALID,0,VALID,100,VALID,0.0339617,VALID,21.0848,VALID,264,VALID,0.261819,
2008-04-07, 01:13:00,VALID,917.365,VALID,0,VALID,100,VALID,0.0339617,VALID,21.082,VALID,230,VALID,0.120206,
2008-04-07, 01:14:00,VALID,917.333,VALID,0,VALID,100,VALID,0.0169808,VALID,21.0688,VALID,223,VALID,0.0740327,
2008-04-07, 01:15:00,VALID,917.31,VALID,0,VALID,100,VALID,0,VALID,21.0661,VALID,232,VALID,0.137386,
2008-04-07, 01:16:00,VALID,917.293,VALID,0,VALID,100,VALID,0,VALID,21.0431,VALID,245,VALID,0.142078,
2008-04-07, 01:17:00,VALID,917.257,VALID,0,VALID,100,VALID,-0.0169808,VALID,21.0201,VALID,245,VALID,0,
2008-04-07, 01:18:00,VALID,917.239,VALID,0,VALID,100,VALID,0.0169808,VALID,21.0071,VALID,255,VALID,0,
2008-04-07, 01:19:00,VALID,917.224,VALID,0,VALID,100,VALID,0,VALID,21.0074,VALID,255,VALID,0,
2008-04-07, 01:20:00,VALID,917.203,VALID,0,VALID,100,VALID,0,VALID,21.0201,VALID,255,VALID,0,
2008-04-07, 01:21:00,VALID,917.173,VALID,0,VALID,100,VALID,0.0509425,VALID,21.0331,VALID,256,VALID,0,
2008-04-07, 01:22:00,VALID,917.148,VALID,0,VALID,100,VALID,0.0339617,VALID,21.062,VALID,257,VALID,0,
2008-04-07, 01:23:00,VALID,917.102,VALID,0,VALID,100,VALID,0.0169808,VALID,21.0885,VALID,256,VALID,0,
2008-04-07, 01:24:00,VALID,917.074,VALID,0,VALID,100,VALID,0,VALID,21.0428,VALID,256,VALID,0,
2008-04-07, 01:25:00,VALID,917.033,VALID,0,VALID,100,VALID,0.0339617,VALID,21.0242,VALID,265,VALID,0.884448,
2008-04-07, 01:26:00,VALID,916.989,VALID,0,VALID,100,VALID,-0.0169808,VALID,20.9682,VALID,264,VALID,1.22618,
2008-04-07, 01:27:00,VALID,916.957,VALID,0,VALID,100,VALID,0,VALID,20.9587,VALID,255,VALID,0.79082,
2008-04-07, 01:28:00,VALID,916.931,VALID,0,VALID,100,VALID,0.0679233,VALID,20.9517,VALID,249,VALID,0.192042,
2008-04-07, 01:29:00,VALID,916.902,VALID,0,VALID,100,VALID,0.0169808,VALID,20.9487,VALID,255,VALID,0.344122,
2008-04-07, 01:30:00,VALID,916.868,VALID,0,VALID,100,VALID,0.0169808,VALID,20.9552,VALID,262,VALID,0.55451,
2008-04-07, 01:31:00,VALID,916.86,VALID,0,VALID,100,VALID,0,VALID,20.9419,VALID,253,VALID,0.633371,
2008-04-07, 01:32:00,VALID,916.834,VALID,0,VALID,100,VALID,0.0339617,VALID,20.9455,VALID,239,VALID,0,
2008-04-07, 01:33:00,VALID,916.831,VALID,0,VALID,100,VALID,0,VALID,20.9519,VALID,240,VALID,0,
2008-04-07, 01:34:00,VALID,916.835,VALID,0,VALID,100,VALID,-0.0169808,VALID,20.9619,VALID,254,VALID,0,
2008-04-07, 01:35:00,VALID,916.811,VALID,0,VALID,100,VALID,0,VALID,20.9776,VALID,19,VALID,0,
2008-04-07, 01:36:00,VALID,916.807,VALID,0,VALID,100,VALID,0.0169808,VALID,21.0006,VALID,32,VALID,0,
2008-04-07, 01:37:00,VALID,916.795,VALID,0,VALID,100,VALID,0.0169808,VALID,21.0363,VALID,32,VALID,0,
2008-04-07, 01:38:00,VALID,916.793,VALID,0,VALID,100,VALID,0,VALID,21.0469,VALID,20,VALID,0,
2008-04-07, 01:39:00,VALID,916.782,VALID,0,VALID,100,VALID,0,VALID,20.9879,VALID,15,VALID,0,
2008-04-07, 01:40:00,VALID,916.753,VALID,0,VALID,100,VALID,0.0169808,VALID,21.0069,VALID,18,VALID,0.00762195,
2008-04-07, 01:41:00,VALID,916.737,VALID,0,VALID,100,VALID,0.0509425,VALID,21.0163,VALID,44,VALID,0.267671,
2008-04-07, 01:42:00,VALID,916.71,VALID,0,VALID,100,VALID,0,VALID,21.0298,VALID,32,VALID,0.723772,
2008-04-07, 01:43:00,VALID,916.674,VALID,0,VALID,100,VALID,0.0169808,VALID,21.0104,VALID,25,VALID,0.00599564,
2008-04-07, 01:44:00,VALID,916.662,VALID,0,VALID,100,VALID,0.0169808,VALID,21.0136,VALID,30,VALID,0,
2008-04-07, 01:45:00,VALID,916.634,VALID,0,VALID,100,VALID,0.0339617,VALID,20.9977,VALID,32,VALID,0.0267578,
2008-04-07, 01:46:00,VALID,916.63,VALID,0,VALID,100,VALID,0,VALID,20.9814,VALID,27,VALID,1.10352,
2008-04-07, 01:47:00,VALID,916.625,VALID,0,VALID,100,VALID,0.0169808,VALID,20.9519,VALID,25,VALID,0.884615,
2008-04-07, 01:48:00,VALID,916.622,VALID,0,VALID,100,VALID,0,VALID,20.969,VALID,25,VALID,0.523056,
2008-04-07, 01:49:00,VALID,916.622,VALID,0,VALID,100,VALID,-0.0169808,VALID,20.9749,VALID,19,VALID,0.0639535,
2008-04-07, 01:50:00,VALID,916.616,VALID,0,VALID,100,VALID,0.0169808,VALID,20.9847,VALID,19,VALID,0.0176711,
2008-04-07, 01:51:00,VALID,916.598,VALID,0,VALID,100,VALID,0,VALID,20.9882,VALID,19,VALID,0.0842014,
2008-04-07, 01:52:00,VALID,916.583,VALID,0,VALID,100,VALID,0,VALID,20.9555,VALID,19,VALID,0.218932,
2008-04-07, 01:53:00,VALID,916.582,VALID,0,VALID,100,VALID,0.0169808,VALID,20.9352,VALID,12,VALID,0.632622,
2008-04-07, 01:54:00,VALID,916.571,VALID,0,VALID,100,VALID,0,VALID,20.9487,VALID,19,VALID,0.732279,
2008-04-07, 01:55:00,VALID,916.565,VALID,0,VALID,100,VALID,0,VALID,20.9649,VALID,19,VALID,0.117369,
2008-04-07, 01:56:00,VALID,916.561,VALID,0,VALID,100,VALID,0,VALID,20.9814,VALID,19,VALID,0,
2008-04-07, 01:57:00,VALID,916.575,VALID,0,VALID,100,VALID,0,VALID,20.9844,VALID,19,VALID,0,
2008-04-07, 01:58:00,VALID,916.579,VALID,0,VALID,100,VALID,0,VALID,20.9941,VALID,19,VALID,0,
2008-04-07, 01:59:00,VALID,916.592,VALID,0,VALID,100,VALID,0,VALID,20.9909,VALID,19,VALID,0,
2008-04-07, 02:00:00,VALID,916.586,VALID,0,VALID,100,VALID,0,VALID,20.9944,VALID,21,VALID,0,
2008-04-07, 02:01:00,VALID,916.581,VALID,0,VALID,100,VALID,-0.0169808,VALID,21.0006,VALID,22,VALID,0,
2008-04-07, 02:02:00,VALID,916.565,VALID,0,VALID,100,VALID,0,VALID,21.0169,VALID,22,VALID,0,
2008-04-07, 02:03:00,VALID,916.543,VALID,0,VALID,100,VALID,0.0169808,VALID,21.0366,VALID,22,VALID,0,
2008-04-07, 02:04:00,VALID,916.532,VALID,0,VALID,100,VALID,0,VALID,21.0526,VALID,23,VALID,0,
2008-04-07, 02:05:00,VALID,916.52,VALID,0,VALID,100,VALID,-0.0169808,VALID,21.0526,VALID,23,VALID,0,
2008-04-07, 02:06:00,VALID,916.501,VALID,0,VALID,100,VALID,0,VALID,21.0396,VALID,23,VALID,0,
2008-04-07, 02:07:00,VALID,916.491,VALID,0,VALID,100,VALID,0.0169808,VALID,21.0591,VALID,23,VALID,0,
2008-04-07, 02:08:00,VALID,916.483,VALID,0,VALID,100,VALID,0.0169808,VALID,21.075,VALID,23,VALID,0,
2008-04-07, 02:09:00,VALID,916.474,VALID,0,VALID,100,VALID,0,VALID,21.0885,VALID,18,VALID,0,
2008-04-07, 02:10:00,VALID,916.466,VALID,0,VALID,100,VALID,0.0169808,VALID,21.0655,VALID,356,VALID,0,
2008-04-07, 02:11:00,VALID,916.458,VALID,0,VALID,100,VALID,0.0169808,VALID,21.0361,VALID,317,VALID,0.148438,
2008-04-07, 02:12:00,VALID,916.427,VALID,0,VALID,100,VALID,0.0509425,VALID,21.0228,VALID,314,VALID,0,
2008-04-07, 02:13:00,VALID,916.409,VALID,0,VALID,100,VALID,0.0339617,VALID,21.0234,VALID,303,VALID,0,
2008-04-07, 02:14:00,VALID,916.414,VALID,0,VALID,100,VALID,0.0339617,VALID,21.0396,VALID,303,VALID,0,
2008-04-07, 02:15:00,VALID,916.412,VALID,0,VALID,100,VALID,0,VALID,21.0491,VALID,303,VALID,0,
2008-04-07, 02:16:00,VALID,916.427,VALID,0,VALID,100,VALID,-0.0169808,VALID,21.0691,VALID,345,VALID,0.34157,
2008-04-07, 02:17:00,VALID,916.435,VALID,0,VALID,100,VALID,0,VALID,21.0753,VALID,28,VALID,0.0561756,
2008-04-07, 02:18:00,VALID,916.457,VALID,0,VALID,100,VALID,-0.0169808,VALID,21.0591,VALID,28,VALID,0,
2008-04-07, 02:19:00,VALID,916.461,VALID,0,VALID,100,VALID,0.0509425,VALID,21.0493,VALID,28,VALID,0,
2008-04-07, 02:20:00,VALID,916.44,VALID,0,VALID,100,VALID,0.0169808,VALID,21.0458,VALID,28,VALID,0,
2008-04-07, 02:21:00,VALID,916.425,VALID,0,VALID,100,VALID,0.0169808,VALID,21.0463,VALID,28,VALID,0,
2008-04-07, 02:22:00,VALID,916.427,VALID,0,VALID,100,VALID,0,VALID,21.0428,VALID,28,VALID,0,
2008-04-07, 02:23:00,VALID,916.407,VALID,0,VALID,100,VALID,0,VALID,21.0428,VALID,28,VALID,0,
2008-04-07, 02:24:00,VALID,916.42,VALID,0,VALID,100,VALID,0.0169808,VALID,21.0396,VALID,28,VALID,0,
2008-04-07, 02:25:00,VALID,916.439,VALID,0,VALID,100,VALID,0,VALID,21.0431,VALID,28,VALID,0,
2008-04-07, 02:26:00,VALID,916.434,VALID,0,VALID,100,VALID,0,VALID,21.0461,VALID,28,VALID,0,
2008-04-07, 02:27:00,VALID,916.437,VALID,0,VALID,100,VALID,0.0169808,VALID,21.0363,VALID,28,VALID,0.372113,
2008-04-07, 02:28:00,VALID,916.454,VALID,0,VALID,100,VALID,0.0339617,VALID,21.0133,VALID,31,VALID,0.651172,
2008-04-07, 02:29:00,VALID,916.443,VALID,0,VALID,100,VALID,0,VALID,20.9747,VALID,31,VALID,0.473544,
2008-04-07, 02:30:00,VALID,916.44,VALID,0,VALID,100,VALID,0.0339617,VALID,20.9809,VALID,31,VALID,0,
2008-04-07, 02:31:00,VALID,916.438,VALID,0,VALID,100,VALID,0.0509425,VALID,20.9812,VALID,31,VALID,0,
2008-04-07, 02:32:00,VALID,916.426,VALID,0,VALID,100,VALID,0,VALID,20.9906,VALID,31,VALID,0,
2008-04-07, 02:33:00,VALID,916.446,VALID,0,VALID,100,VALID,0.0509425,VALID,20.9612,VALID,31,VALID,0,
2008-04-07, 02:34:00,VALID,916.451,VALID,0,VALID,100,VALID,0.0339617,VALID,20.9682,VALID,31,VALID,0,
2008-04-07, 02:35:00,VALID,916.458,VALID,0,VALID,100,VALID,-0.0509425,VALID,20.966,VALID,31,VALID,0,
2008-04-07, 02:36:00,VALID,916.466,VALID,0,VALID,100,VALID,-0.0509425,VALID,20.9665,VALID,31,VALID,0,
2008-04-07, 02:37:00,VALID,916.465,VALID,0,VALID,100,VALID,-0.0679233,VALID,20.9538,VALID,31,VALID,0,
2008-04-07, 02:38:00,VALID,916.481,VALID,0,VALID,100,VALID,-0.101885,VALID,20.9435,VALID,31,VALID,0,
2008-04-07, 02:39:00,VALID,916.492,VALID,0,VALID,100,VALID,-0.0169808,VALID,20.9178,VALID,28,VALID,0,
2008-04-07, 02:40:00,VALID,916.499,VALID,0,VALID,100,VALID,-0.0679233,VALID,20.8886,VALID,23,VALID,0,
2008-04-07, 02:41:00,VALID,916.493,VALID,0,VALID,100,VALID,-0.0509425,VALID,20.8719,VALID,23,VALID,0,
2008-04-07, 02:42:00,VALID,916.487,VALID,0,VALID,100,VALID,-0.0679233,VALID,20.8819,VALID,25,VALID,0,
2008-04-07, 02:43:00,VALID,916.485,VALID,0,VALID,100,VALID,-0.0849042,VALID,20.9078,VALID,26,VALID,0,
2008-04-07, 02:44:00,VALID,916.472,VALID,0,VALID,100,VALID,-0.0849042,VALID,20.8883,VALID,26,VALID,0,
2008-04-07, 02:45:00,VALID,916.458,VALID,0,VALID,100,VALID,-0.0679233,VALID,20.8919,VALID,26,VALID,0,
2008-04-07, 02:46:00,VALID,916.449,VALID,0,VALID,100,VALID,-0.0679233,VALID,20.8948,VALID,26,VALID,0,
2008-04-07, 02:47:00,VALID,916.429,VALID,0,VALID,100,VALID,-0.101885,VALID,20.9211,VALID,28,VALID,0,
2008-04-07, 02:48:00,VALID,916.424,VALID,0,VALID,100,VALID,-0.0849042,VALID,20.9335,VALID,31,VALID,0.702778,
2008-04-07, 02:49:00,VALID,916.401,VALID,0,VALID,100,VALID,-0.0849042,VALID,20.9438,VALID,27,VALID,1.10065,
2008-04-07, 02:50:00,VALID,916.391,VALID,0,VALID,100,VALID,-0.0849042,VALID,20.937,VALID,30,VALID,1.11754,
2008-04-07, 02:51:00,VALID,916.368,VALID,0,VALID,100,VALID,-0.0679233,VALID,20.94,VALID,25,VALID,0.407774,
2008-04-07, 02:52:00,VALID,916.371,VALID,0,VALID,100,VALID,-0.0679233,VALID,20.9376,VALID,24,VALID,0.00260417,
2008-04-07, 02:53:00,VALID,916.343,VALID,0,VALID,100,VALID,-0.101885,VALID,20.9338,VALID,25,VALID,0,
2008-04-07, 02:54:00,VALID,916.338,VALID,0,VALID,100,VALID,-0.0509425,VALID,20.9338,VALID,22,VALID,0.00109012,
2008-04-07, 02:55:00,VALID,916.34,VALID,0,VALID,100,VALID,-0.0509425,VALID,20.9241,VALID,24,VALID,0,
2008-04-07, 02:56:00,VALID,916.351,VALID,0,VALID,100,VALID,-0.0849042,VALID,20.9008,VALID,24,VALID,0,
2008-04-07, 02:57:00,VALID,916.354,VALID,0,VALID,100,VALID,-0.0679233,VALID,20.8981,VALID,12,VALID,0,
2008-04-07, 02:58:00,VALID,916.365,VALID,0,VALID,100,VALID,-0.0679233,VALID,20.8556,VALID,356,VALID,0,
2008-04-07, 02:59:00,VALID,916.371,VALID,0,VALID,100,VALID,-0.0509425,VALID,20.8397,VALID,358,VALID,0,
2008-04-07, 03:00:00,VALID,916.379,VALID,0,VALID,100,VALID,-0.0509425,VALID,20.8197,VALID,14,VALID,0,
2008-04-07, 03:01:00,VALID,916.381,VALID,0,VALID,100,VALID,-0.0679233,VALID,20.8297,VALID,16,VALID,0,
2008-04-07, 03:02:00,VALID,916.382,VALID,0,VALID,100,VALID,-0.0509425,VALID,20.8394,VALID,31,VALID,0,
2008-04-07, 03:03:00,VALID,916.367,VALID,0,VALID,100,VALID,-0.101885,VALID,20.8562,VALID,28,VALID,0.232465,
2008-04-07, 03:04:00,VALID,916.374,VALID,0,VALID,100,VALID,-0.0679233,VALID,20.8721,VALID,27,VALID,0,
2008-04-07, 03:05:00,VALID,916.387,VALID,0,VALID,100,VALID,-0.0509425,VALID,20.8554,VALID,20,VALID,0.134859,
2008-04-07, 03:06:00,VALID,916.395,VALID,0,VALID,100,VALID,0,VALID,20.8516,VALID,9,VALID,1.02689,
2008-04-07, 03:07:00,VALID,916.405,VALID,0,VALID,100,VALID,0,VALID,20.8286,VALID,21,VALID,0.889509,
2008-04-07, 03:08:00,VALID,916.416,VALID,0,VALID,100,VALID,0,VALID,20.8451,VALID,5,VALID,0.0195313,
2008-04-07, 03:09:00,VALID,916.412,VALID,0,VALID,100,VALID,-0.0169808,VALID,20.8286,VALID,349,VALID,0.0472656,
2008-04-07, 03:10:00,VALID,916.407,VALID,0,VALID,100,VALID,-0.0169808,VALID,20.8254,VALID,20,VALID,0.431686,
2008-04-07, 03:11:00,VALID,916.407,VALID,0,VALID,100,VALID,0,VALID,20.8351,VALID,15,VALID,0.519618,
2008-04-07, 03:12:00,VALID,916.404,VALID,0,VALID,100,VALID,-0.0169808,VALID,20.8221,VALID,13,VALID,0,
2008-04-07, 03:13:00,VALID,916.404,VALID,0,VALID,100,VALID,0,VALID,20.8091,VALID,13,VALID,0.00454215,
2008-04-07, 03:14:00,VALID,916.409,VALID,0,VALID,100,VALID,-0.0169808,VALID,20.7999,VALID,13,VALID,0,
2008-04-07, 03:15:00,VALID,916.409,VALID,0,VALID,100,VALID,0,VALID,20.8197,VALID,13,VALID,0,
2008-04-07, 03:16:00,VALID,916.399,VALID,0,VALID,100,VALID,-0.0169808,VALID,20.8059,VALID,322,VALID,0,
2008-04-07, 03:17:00,VALID,916.404,VALID,0,VALID,100,VALID,-0.0169808,VALID,20.8026,VALID,308,VALID,0,
2008-04-07, 03:18:00,VALID,916.409,VALID,0,VALID,100,VALID,-0.0339617,VALID,20.8286,VALID,308,VALID,0.0512355,
2008-04-07, 03:19:00,VALID,916.403,VALID,0,VALID,100,VALID,-0.0169808,VALID,20.8454,VALID,308,VALID,0,
2008-04-07, 03:20:00,VALID,916.405,VALID,0,VALID,100,VALID,0,VALID,20.8611,VALID,319,VALID,0,
2008-04-07, 03:21:00,VALID,916.408,VALID,0,VALID,100,VALID,-0.0169808,VALID,20.8778,VALID,8,VALID,0.054878,
2008-04-07, 03:22:00,VALID,916.415,VALID,0,VALID,100,VALID,0,VALID,20.874,VALID,37,VALID,0.593205,
2008-04-07, 03:23:00,VALID,916.411,VALID,0,VALID,100,VALID,0,VALID,20.884,VALID,39,VALID,0.0625,
2008-04-07, 03:24:00,VALID,916.416,VALID,0,VALID,100,VALID,-0.0339617,VALID,20.884,VALID,2,VALID,0.00461648,
2008-04-07, 03:25:00,VALID,916.426,VALID,0,VALID,100,VALID,-0.0339617,VALID,20.8781,VALID,342,VALID,0,
2008-04-07, 03:26:00,VALID,916.432,VALID,0,VALID,100,VALID,-0.0169808,VALID,20.8611,VALID,342,VALID,0,
2008-04-07, 03:27:00,VALID,916.426,VALID,0,VALID,100,VALID,-0.0509425,VALID,20.8743,VALID,342,VALID,0,
2008-04-07, 03:28:00,VALID,916.425,VALID,0,VALID,100,VALID,-0.0169808,VALID,20.8711,VALID,347,VALID,0,
2008-04-07, 03:29:00,VALID,916.405,VALID,0,VALID,100,VALID,-0.0169808,VALID,20.8546,VALID,11,VALID,0,
2008-04-07, 03:30:00,VALID,916.405,VALID,0,VALID,100,VALID,0,VALID,20.8321,VALID,27,VALID,0.261458,
2008-04-07, 03:31:00,VALID,916.412,VALID,0,VALID,100,VALID,-0.0509425,VALID,20.8451,VALID,29,VALID,0.789912,
2008-04-07, 03:32:00,VALID,916.416,VALID,0,VALID,100,VALID,-0.0509425,VALID,20.8097,VALID,22,VALID,0.849848,
2008-04-07, 03:33:00,VALID,916.439,VALID,0,VALID,100,VALID,-0.0169808,VALID,20.8026,VALID,24,VALID,0.336509,
2008-04-07, 03:34:00,VALID,916.442,VALID,0,VALID,100,VALID,0,VALID,20.8094,VALID,24,VALID,0,
2008-04-07, 03:35:00,VALID,916.454,VALID,0,VALID,100,VALID,0,VALID,20.7962,VALID,24,VALID,0.220567,
2008-04-07, 03:36:00,VALID,916.458,VALID,0,VALID,100,VALID,-0.0169808,VALID,20.7802,VALID,24,VALID,0.0567835,
2008-04-07, 03:37:00,VALID,916.458,VALID,0,VALID,100,VALID,-0.0169808,VALID,20.7897,VALID,24,VALID,0.391211,
2008-04-07, 03:38:00,VALID,916.457,VALID,0,VALID,100,VALID,-0.0169808,VALID,20.7897,VALID,24,VALID,0.0771949,
2008-04-07, 03:39:00,VALID,916.464,VALID,0,VALID,100,VALID,0,VALID,20.7864,VALID,24,VALID,0.0214844,
2008-04-07, 03:40:00,VALID,916.46,VALID,0,VALID,100,VALID,-0.0169808,VALID,20.7377,VALID,53,VALID,0.223895,
2008-04-07, 03:41:00,VALID,916.471,VALID,0,VALID,100,VALID,-0.0169808,VALID,20.7053,VALID,60,VALID,0,
2008-04-07, 03:42:00,VALID,916.485,VALID,0,VALID,100,VALID,0,VALID,20.7247,VALID,60,VALID,0,
2008-04-07, 03:43:00,VALID,916.489,VALID,0,VALID,100,VALID,-0.0169808,VALID,20.7602,VALID,60,VALID,0,
2008-04-07, 03:44:00,VALID,916.484,VALID,0,VALID,100,VALID,-0.0509425,VALID,20.7797,VALID,60,VALID,0,
2008-04-07, 03:45:00,VALID,916.465,VALID,0,VALID,100,VALID,-0.0169808,VALID,20.7707,VALID,60,VALID,0,
2008-04-07, 03:46:00,VALID,916.443,VALID,0,VALID,100,VALID,-0.0169808,VALID,20.7477,VALID,60,VALID,0,
2008-04-07, 03:47:00,VALID,916.437,VALID,0,VALID,100,VALID,-0.0339617,VALID,20.7118,VALID,60,VALID,0,
2008-04-07, 03:48:00,VALID,916.405,VALID,0,VALID,100,VALID,-0.0679233,VALID,20.7055,VALID,60,VALID,0,
2008-04-07, 03:49:00,VALID,916.388,VALID,0,VALID,100,VALID,-0.0169808,VALID,20.7118,VALID,59,VALID,0,